Aérodrome :
LOGIN :

S'inscrire | Disclaimer

   EN    FR    IT 

 










Légende :    VFR   VFR Marginal   IFR   IFR Intensif   IFR Très Intensif
Visi : 
Plafond : 
>= 8 km
>= 3000ft
5 à 8 km
1000 à 3000 ft
1500m à 5 km
500 à 1000 ft
800 à 1500m
200 à 500 ft
< 800m
< 200 ft
Symboles :   Orages  Brouillard  Fortes neiges  Fortes précipitations  Vent > 20 kt
SIGMETs :   Divers  Orages  Givrage  Turbulence  Onde Orograph.  Cendres Volcan.







- Altitude de l'aérodrome : 1416 ft
- Code IATA : ZRH


LSZH - Zurich

DERNIER METAR :
  • 242220Z 02003KT CAVOK 12/10 Q1015 NOSIG

METARs EXPIRÉS :
  • 242150Z 33002KT CAVOK 12/10 Q1015 NOSIG
  • 242120Z VRB03KT CAVOK 13/10 Q1014 NOSIG
  • 242050Z VRB03KT CAVOK 13/11 Q1014 NOSIG
  • 242020Z VRB02KT CAVOK 14/10 Q1014 NOSIG
  • 241950Z 32005KT CAVOK 14/10 Q1014 NOSIG

TAF TAF LSZH
Valide du 24 à 21h jusqu'au 26 à 03h UTC


242025Z 2421/2603 VRB03KT CAVOK TX20/2515Z TN08/2505Z
BECMG 2503/2506 9999 FEW050
TEMPO 2506/2524 SHRA FEW050TCU
PROB40
TEMPO 2510/2521 26012G25KT 4000 TSRA SCT050CB
ATIS : +41 43 816 2295 (DEP) +41 43 816 2294 (ARR)
Pas de NOTAMs connus pour ce terrain.



MET'MAP, la Météo Aéronautique d'un coup d'oeil ! - Copyright ORBIFLY Décembre 2007 - Disclaimer

ORBIFLY MET'MAP TEAM :

Programmation & Développement : Alexandra Zaïnal
Conception & Développement : Baudouin d'Aumeries
Co-Programmation & Développement : Marc-Olivier Méhu
Soutien technique & logistique : Manuel Goepfert

Contact : metmap@orbifly.com




SOURCES & CREDITS :

   NOAA